[[{"header":{"parameterUnit":"m.s-1","parameterCategory":1,"la1":30.2991,"la2":30.254,"lo1":-89.0895,"lo2":-89.0444,"dy":0.0017,"dx":0.0017,"nx":28,"ny":28,"refTime":"2025-08-17T21:00:00:Z","depth":0,"parameterNumber":2,"parameterNumberName":"U-component_of_WINDS"},"data":[0,0,0,0,0,0,0,0,0,0,0,0,0,0,0,0,0,0,0,0,0,0,0,0,0,0,0,0,0,0,0,0,0,0,0,0,0,0,0,0,0,0,0,0,0,0,0,0,0,0,0,0,0,0,0,0,0,0,-1.8745,-1.874,0,-1.8251,-1.8245,-1.824,-1.7914,-1.7912,-1.791,-1.7908,-1.7395,-1.7384,-1.7372,0,0,0,0,0,0,0,0,0,0,0,0,0,-1.9402,-1.9392,-1.8746,-1.8739,-1.8733,-1.8252,-1.8245,-1.8238,-1.7915,-1.7912,-1.791,-1.7907,-1.7399,-1.7385,-1.7371,0,0,0,0,0,0,0,0,0,0,0,0,0,-1.9034,-1.9389,-1.8747,-1.8514,-1.8488,-1.8253,-1.8245,-1.8236,-1.7915,-1.7912,-1.7909,-1.7906,-1.7404,-1.7387,-1.7369,-1.7325,0,0,-1.7316,-1.7308,0,0,0,0,0,0,0,0,-1.9055,-1.901,-1.8554,-1.853,-1.85,-1.8141,-1.8288,-1.793,-1.7916,-1.8133,-1.7908,-1.7904,-1.7646,-1.7608,-1.7522,-1.7301,-1.7279,-1.7314,-1.7304,-1.7296,-1.7291,0,0,0,0,0,0,0,-1.9081,-1.9029,-1.8549,-1.8548,-1.8515,-1.8432,-1.8376,-1.8219,-1.7913,-1.8113,-1.8089,-1.8035,-1.763,-1.754,-1.7507,-1.7271,-1.7315,-1.7299,-1.7288,-1.7281,-1.6985,-1.6987,0,0,0,0,0,0,-1.9144,-1.9053,-1.8565,-1.8535,-1.8776,-1.8423,-1.836,-1.826,-1.7913,-1.7858,-1.8038,-1.8022,-1.7571,-1.7528,-1.7488,-1.741,-1.7296,-1.728,-1.727,-1.6982,-1.6985,-1.6988,0,0,0,0,0,0,-1.9159,-1.9104,-1.8585,-1.8787,-1.8714,-1.8415,-1.8304,-1.8251,-1.816,-1.7857,-1.78,-1.8003,-1.7567,-1.7513,-1.7367,-1.7388,-1.7272,-1.7256,-1.6979,-1.6983,-1.6987,-1.7257,0,0,0,0,0,0,-1.918,-1.9111,-1.9093,-1.8789,-1.8705,-1.8476,-1.8306,-1.8244,-1.8132,-1.8106,-1.7808,-1.7756,-1.756,-1.7395,-1.735,-1.7362,-1.7242,-1.6976,-1.6981,-1.6985,-1.7245,-1.727,-1.7291,0,0,0,0,0,-1.9204,-1.9188,-1.9094,-1.9037,-1.8676,-1.8478,-1.8429,-1.8207,-1.8135,-1.8113,-1.7917,-1.7765,-1.7394,-1.7383,-1.7329,-1.7336,-1.6973,-1.6979,-1.6985,-1.7235,-1.7265,-1.7291,0,0,0,0,0,0,-1.95,-1.9144,-1.9035,-1.892,-1.8732,-1.8423,-1.8388,-1.8246,-1.8072,-1.8055,-1.7784,-1.7719,-1.7601,-1.7453,-1.7448,-1.7273,-1.7165,-1.7161,-1.7374,-1.74,-1.7423,-1.7459,-1.7228,0,0,0,0,0,-1.9552,-1.9423,-1.9118,-1.9046,-1.8957,-1.8691,-1.8595,-1.8441,-1.8233,-1.8151,-1.7945,-1.7748,-1.7586,-1.7485,-1.732,-1.7223,-1.7151,-1.7201,-1.7224,-1.7245,-1.7243,-1.7178,-1.7195,-1.7007,-1.7007,-1.7007,0,0,-1.9658,-1.9447,-1.9382,-1.91,-1.8935,-1.8805,-1.8625,-1.8495,-1.8395,-1.813,-1.798,-1.7823,-1.7584,-1.7463,-1.7399,-1.7337,-1.728,-1.7252,-1.7271,-1.7257,-1.7186,-1.7204,-1.722,-1.7011,-1.7011,-1.701,0,0,-1.9783,-1.9613,-1.9533,-1.9372,-1.9127,-1.8949,-1.8931,-1.8643,-1.8529,-1.8375,-1.8173,-1.8049,-1.7777,-1.7615,-1.7497,-1.7562,-1.7414,-1.7516,-1.7635,-1.7575,-1.759,-1.7602,-1.7622,-1.7633,-1.7516,-1.7516,-1.7517,0,-1.9944,-1.9742,-1.9509,-1.939,-1.9271,-1.9029,-1.8944,-1.8799,-1.8512,-1.8434,-1.837,-1.8022,-1.7845,-1.7681,-1.7697,-1.7611,-1.7578,-1.7547,-1.7607,-1.7617,-1.7624,-1.764,-1.7649,-1.753,-1.7529,-1.7527,-1.7526,0,-1.9952,-1.9815,-1.9779,-1.951,-1.9387,-1.9287,-1.9036,-1.8939,-1.8796,-1.8625,-1.8469,-1.8248,-1.8033,-1.7983,-1.7841,-1.7798,-1.7767,-1.7659,-1.7544,-1.766,-1.767,-1.7675,-1.755,-1.7545,-1.7541,-1.7537,0,0,-2.0247,-1.9851,-1.9842,-1.9716,-1.9428,-1.9316,-1.9204,-1.8995,-1.8916,-1.8727,-1.8623,-1.8399,-1.8297,-1.8164,-1.8001,-1.7949,-1.8011,-1.7845,-1.7835,-1.7882,-1.7947,-1.8028,-1.804,-1.7913,-1.7913,-1.7914,-1.7966,0,-2.0326,-2.0115,-1.9902,-1.9764,-1.9633,-1.9401,-1.9303,-1.9114,-1.8952,-1.8815,-1.8633,-1.8478,-1.8357,-1.8274,-1.8213,-1.8018,-1.802,-1.8011,-1.7811,-1.7806,-1.7875,-1.8045,-1.813,-1.819,-1.7969,-1.7969,-1.797,0,-2.039,-2.0214,-2.0065,-1.9788,-1.9724,-1.9641,-1.9431,-1.9305,-1.9085,-1.897,-1.8823,-1.8651,-1.8518,-1.8422,-1.8233,-1.8232,-1.8137,-1.8029,-1.8025,-1.7995,-1.7894,-1.8017,-1.8204,-1.8213,-1.7974,-1.7974,-1.7974,0,-2.0618,-2.0342,-2.0216,-2.0116,-1.9791,-1.9737,-1.9599,-1.9376,-1.9264,-1.9081,-1.9005,-1.8809,-1.8701,-1.8552,-1.833,-1.8281,-1.8164,-1.805,-1.8062,-1.8067,-1.8045,-1.8049,-1.8217,-1.7991,-1.7991,-1.7991,-1.799,0,-2.0727,-2.0644,-2.0314,-2.0237,-2.0136,-1.9892,-1.9798,-1.9638,-1.9442,-1.9327,-1.9115,-1.9011,-1.8727,-1.8588,-1.8414,-1.8282,-1.8236,-1.8137,-1.8091,-1.8154,-1.8166,-1.8086,-1.8075,-1.7993,-1.7992,-1.7992,-1.7991,0,-2.0963,-2.0739,-2.0586,-2.0292,-2.0216,-2.0154,-1.99,-1.9814,-1.9641,-1.9498,-1.945,-1.9177,-1.9002,-1.8768,-1.852,-1.8403,-1.8293,-1.8223,-1.8368,-1.834,-1.8364,-1.8365,-1.8484,-1.8486,-1.8265,-1.8267,-1.8269,0,-2.1046,-2.0977,-2.0676,-2.0585,-2.0454,-2.0311,-2.0196,-1.9952,-1.984,-1.9585,-1.953,-1.934,-1.9175,-1.8907,-1.8684,-1.8493,-1.8414,-1.847,-1.8384,-1.8449,-1.8411,-1.8417,-1.8407,-1.849,-1.8494,-1.8497,-1.8499,0,-2.1217,-2.1109,-2.0954,-2.0759,-2.0629,-2.0463,-2.0287,-2.0225,-1.9943,-1.9828,-1.9649,-1.9522,-1.927,-1.9082,-1.8862,-1.8715,-1.8559,-1.8529,-1.852,-1.8582,-1.8668,-1.8619,-1.8422,-1.8526,-1.8523,-1.8521,-1.852,-1.8519,-2.1375,-2.1302,-2.1079,-2.0912,-2.0755,-2.0596,-2.0501,-2.0316,-2.0163,-1.9941,-1.9806,-1.9632,-1.9411,-1.9099,-1.896,-1.8817,-1.8756,-1.8746,-1.8742,-1.8742,-1.8762,-1.8695,-1.8777,-1.8776,-1.8775,-1.8774,-1.8773,0,-2.1532,-2.1377,-2.1227,-2.0989,-2.0857,-2.0726,-2.0524,-2.0422,-2.0272,-2.0081,-1.9924,-1.9717,-1.9534,-1.9298,-1.9098,-1.903,-1.8953,-1.8985,-1.8985,-1.8953,-1.883,-1.8855,-1.905,-1.905,-1.905,-1.905,-1.905,-1.905,-2.1598,-2.1467,-2.1334,-2.1122,-2.0966,-2.0796,-2.0692,-2.0543,-2.0389,-2.0169,-2.0017,-1.9865,-1.9654,-1.9437,-1.9263,-1.9198,-1.9132,-1.9186,-1.9099,-1.8987,-1.8963,-1.8939,-1.8961,-1.9175,-1.9175,-1.9233,-1.9234,-1.9234]},{"header":{"parameterUnit":"m.s-1","parameterCategory":1,"la1":30.2991,"la2":30.254,"lo1":-89.0895,"lo2":-89.0444,"dy":0.0017,"dx":0.0017,"nx":28,"ny":28,"refTime":"2025-08-17T21:00:00:Z","depth":0,"parameterNumber":3,"parameterNumberName":"V-component_of_WINDS"},"data":[0,0,0,0,0,0,0,0,0,0,0,0,0,0,0,0,0,0,0,0,0,0,0,0,0,0,0,0,0,0,0,0,0,0,0,0,0,0,0,0,0,0,0,0,0,0,0,0,0,0,0,0,0,0,0,0,0,0,-0.9174,-0.9175,0,-0.927,-0.9271,-0.9272,-0.9361,-0.9362,-0.9364,-0.9365,-0.9457,-0.9459,-0.946,0,0,0,0,0,0,0,0,0,0,0,0,0,-0.9064,-0.9066,-0.9174,-0.9175,-0.9176,-0.927,-0.9271,-0.9272,-0.9361,-0.9362,-0.9364,-0.9365,-0.9457,-0.9459,-0.946,0,0,0,0,0,0,0,0,0,0,0,0,0,-0.9131,-0.9066,-0.9174,-0.9232,-0.9238,-0.9269,-0.9271,-0.9273,-0.9361,-0.9363,-0.9364,-0.9366,-0.9456,-0.9459,-0.9461,-0.944,0,0,-0.9467,-0.9468,0,0,0,0,0,0,0,0,-0.9127,-0.9135,-0.9222,-0.9228,-0.9235,-0.9306,-0.9267,-0.9329,-0.936,-0.9314,-0.9365,-0.9367,-0.9405,-0.9412,-0.9426,-0.9445,-0.9449,-0.9467,-0.9469,-0.947,-0.947,0,0,0,0,0,0,0,-0.9122,-0.9131,-0.9212,-0.9223,-0.9231,-0.9252,-0.9264,-0.9279,-0.9349,-0.9318,-0.9325,-0.9335,-0.9409,-0.9423,-0.9429,-0.945,-0.9467,-0.9469,-0.9471,-0.9471,-0.9459,-0.9457,0,0,0,0,0,0,-0.9109,-0.9127,-0.9209,-0.9215,-0.9184,-0.9253,-0.9266,-0.9281,-0.9349,-0.9361,-0.9334,-0.9339,-0.9419,-0.9426,-0.9432,-0.9414,-0.947,-0.9472,-0.9473,-0.946,-0.9458,-0.9456,0,0,0,0,0,0,-0.9107,-0.9116,-0.9205,-0.9173,-0.9186,-0.9253,-0.927,-0.9282,-0.9297,-0.9361,-0.9373,-0.9336,-0.9421,-0.9429,-0.9438,-0.9418,-0.9473,-0.9474,-0.9462,-0.946,-0.9457,-0.9375,0,0,0,0,0,0,-0.9103,-0.9114,-0.9108,-0.9172,-0.9187,-0.921,-0.9268,-0.9283,-0.9301,-0.9309,-0.9366,-0.9377,-0.9423,-0.9435,-0.944,-0.9422,-0.9476,-0.9464,-0.9461,-0.9458,-0.938,-0.937,-0.9362,0,0,0,0,0,-0.9099,-0.9079,-0.9107,-0.9116,-0.918,-0.9208,-0.9217,-0.9271,-0.9299,-0.9292,-0.9334,-0.9375,-0.942,-0.9435,-0.9442,-0.9424,-0.9466,-0.9462,-0.9458,-0.9384,-0.9372,-0.9362,0,0,0,0,0,0,-0.9008,-0.9089,-0.912,-0.9121,-0.9158,-0.9223,-0.9217,-0.9256,-0.9284,-0.929,-0.9355,-0.9367,-0.9369,-0.9398,-0.9413,-0.9409,-0.9448,-0.9446,-0.9389,-0.9379,-0.937,-0.9362,-0.9478,0,0,0,0,0,-0.8989,-0.9006,-0.9075,-0.9069,-0.9086,-0.9148,-0.9162,-0.9201,-0.9241,-0.9256,-0.9299,-0.9334,-0.9357,-0.9369,-0.9393,-0.9385,-0.9399,-0.9377,-0.9368,-0.936,-0.9356,-0.9355,-0.9346,-0.9444,-0.9444,-0.9445,0,0,-0.8947,-0.8994,-0.9,-0.9052,-0.9085,-0.9101,-0.916,-0.9174,-0.9186,-0.9258,-0.927,-0.9302,-0.9346,-0.9347,-0.9349,-0.9371,-0.9333,-0.9355,-0.9348,-0.9349,-0.9351,-0.9341,-0.9333,-0.9442,-0.9442,-0.9443,0,0,-0.8881,-0.8918,-0.8917,-0.895,-0.9,-0.9042,-0.9042,-0.9103,-0.9128,-0.9142,-0.9196,-0.9211,-0.9248,-0.9278,-0.9297,-0.9245,-0.9285,-0.9251,-0.9203,-0.9202,-0.9194,-0.9187,-0.9169,-0.9161,-0.9248,-0.9248,-0.9248,0,-0.8822,-0.885,-0.8911,-0.8923,-0.8944,-0.9013,-0.9013,-0.9041,-0.9095,-0.9107,-0.9132,-0.9181,-0.9215,-0.9225,-0.9212,-0.9226,-0.9228,-0.9244,-0.919,-0.9184,-0.9179,-0.9162,-0.9155,-0.9244,-0.9244,-0.9245,-0.9245,0,-0.8776,-0.8794,-0.8788,-0.8841,-0.8862,-0.8867,-0.8929,-0.8942,-0.898,-0.9019,-0.9033,-0.9077,-0.9112,-0.9118,-0.9154,-0.9133,-0.9145,-0.9179,-0.922,-0.9164,-0.9149,-0.9143,-0.9237,-0.9239,-0.924,-0.9241,0,0,-0.8651,-0.8742,-0.8738,-0.8764,-0.8826,-0.8841,-0.8849,-0.8886,-0.8896,-0.8932,-0.8941,-0.8972,-0.9005,-0.9027,-0.9068,-0.9066,-0.9023,-0.9101,-0.9103,-0.9085,-0.9003,-0.8976,-0.8967,-0.905,-0.9049,-0.9049,-0.8999,0,-0.8594,-0.8615,-0.8672,-0.8675,-0.8693,-0.8761,-0.8768,-0.8807,-0.8844,-0.8864,-0.8906,-0.8927,-0.8969,-0.8983,-0.8985,-0.9028,-0.9007,-0.9032,-0.9058,-0.9058,-0.9043,-0.896,-0.8931,-0.8882,-0.8994,-0.8993,-0.8992,0,-0.8529,-0.8563,-0.8569,-0.8632,-0.8642,-0.8648,-0.8687,-0.8705,-0.8751,-0.8779,-0.8805,-0.8851,-0.8864,-0.8904,-0.8922,-0.8938,-0.8953,-0.8976,-0.8975,-0.8978,-0.902,-0.896,-0.8867,-0.8859,-0.8983,-0.8984,-0.8985,0,-0.8436,-0.8484,-0.8495,-0.8515,-0.8589,-0.8592,-0.8622,-0.867,-0.8689,-0.8723,-0.8736,-0.877,-0.8788,-0.8814,-0.8868,-0.8892,-0.888,-0.8924,-0.8903,-0.8901,-0.8896,-0.8895,-0.8803,-0.8906,-0.8907,-0.8907,-0.8907,0,-0.8365,-0.8366,-0.8454,-0.846,-0.8463,-0.8529,-0.853,-0.8567,-0.861,-0.8623,-0.8684,-0.8695,-0.8767,-0.8787,-0.8829,-0.8838,-0.8846,-0.8868,-0.8879,-0.8862,-0.8859,-0.8871,-0.8876,-0.8905,-0.8905,-0.8906,-0.8906,0,-0.8262,-0.8321,-0.8337,-0.8407,-0.8425,-0.8424,-0.8484,-0.8492,-0.8535,-0.8552,-0.856,-0.8626,-0.8653,-0.8711,-0.8752,-0.8781,-0.878,-0.88,-0.8764,-0.8771,-0.8747,-0.8748,-0.8658,-0.865,-0.8759,-0.8758,-0.8757,0,-0.8212,-0.8214,-0.8286,-0.8301,-0.833,-0.8353,-0.8373,-0.8439,-0.8458,-0.8512,-0.8513,-0.8546,-0.8575,-0.8614,-0.8666,-0.8699,-0.872,-0.8687,-0.8725,-0.8708,-0.8719,-0.8718,-0.8719,-0.8677,-0.8675,-0.8674,-0.8673,0,-0.8116,-0.8147,-0.8175,-0.8214,-0.8238,-0.8271,-0.8308,-0.8316,-0.8391,-0.8409,-0.8438,-0.8461,-0.8506,-0.8537,-0.8578,-0.8609,-0.8653,-0.8661,-0.8658,-0.864,-0.8619,-0.863,-0.874,-0.8662,-0.8663,-0.8664,-0.8665,-0.8665,-0.8038,-0.8044,-0.8096,-0.8126,-0.8162,-0.8195,-0.8207,-0.8253,-0.8279,-0.8322,-0.8359,-0.8385,-0.8433,-0.8493,-0.8522,-0.8543,-0.8565,-0.856,-0.8559,-0.8556,-0.8549,-0.8617,-0.8551,-0.8551,-0.8552,-0.8552,-0.8552,0,-0.7945,-0.7983,-0.8011,-0.8062,-0.8085,-0.8128,-0.8172,-0.8188,-0.8211,-0.8253,-0.8281,-0.8316,-0.8347,-0.8403,-0.8439,-0.8445,-0.8467,-0.8452,-0.8452,-0.8459,-0.8527,-0.8526,-0.8435,-0.8435,-0.8435,-0.8435,-0.8435,-0.8435,-0.79,-0.7913,-0.795,-0.7981,-0.8019,-0.8047,-0.8068,-0.8099,-0.8133,-0.817,-0.8197,-0.8234,-0.8282,-0.8322,-0.8353,-0.8369,-0.8379,-0.8358,-0.838,-0.8443,-0.8453,-0.8464,-0.8463,-0.836,-0.836,-0.831,-0.8309,-0.8309]}]]